User: anonymous   Login
Location: Unspecified
(0.0000°N, 0.0000°E)
Time: 23:51:53
(UTC+00:00)
Language:

ONEWEB-0120 - Orbit

View from above orbital plane
View from above orbital plane
View from above satellite
View from above satellite

Ground track
Ground track

The orbit is defined by the following mean orbital elements,

1 47266U          26145.12911992 +.00000000 +00000-0 -32336-5 0 00003
2 47266  87.8950 355.2580 0001626  89.8721 270.2594 13.12441352    07
Epoch (UTC): 25 May 2026 03:05:55
Eccentricity: 0.0001626
inclination: 87.8950°
perigee height: 1212 km
apogee height: 1215 km
right ascension of ascending node: 355.2580°
argument of perigee: 89.8721°
revolutions per day: 13.12441352
mean anomaly at epoch: 270.2594°

The dashed part of the orbit path shows where the satellite is in the earth's shadow,  

DLR